パンスターズ彗星

311P/PanSTARRS (2007)

English version
Home page
Updated on November 3, 2020

---------------------------------------------------------------------

・ プロフィール

・ 軌道要素

Epoch 2007 Oct. 27.0 TT = JDT 2454400.5
T 2007 Oct. 24.55744 TT                                 MPCW
q   1.9347605            (2000.0)            P               Q
n   0.30438907     Peri.  144.24066     +0.44231418     -0.89277651
a   2.1886854      Node   279.36910     +0.80139996     +0.43622824
e   0.1160171      Incl.    4.97058     +0.40263665     +0.11249452
P   3.24
From 184 observations 2005 Jan. 17-2018 Mar. 7, mean residual 0".3.

・ 光度変化

        H = 17.5  G = 0.15

---------------------------------------------------------------------

軌道要素はM.P.E.C. 2018-F152に掲載されたものです。
光度グラフはComet for Windowsで作成したものです。

---------------------------------------------------------------------

Copyright(C) Seiichi Yoshida (comet@aerith.net). All rights reserved.